• MPC Preparation (Info)

  • MPEC 2020-P38 : 2020 PP

    The following Minor Planet Electronic Circular may be linked-to from your own Web pages, but must not otherwise be redistributed electronically.

    A form allowing access to any MPEC is at the bottom of this page.


    Read MPEC 2020-P37 Read MPEC 2020-P39


    M.P.E.C. 2020-P38                               Issued 2020 August 10, 10:16 UT
    
         The Minor Planet Electronic Circulars contain information on unusual
             minor planets and routine data on comets.  They are published
        on behalf of Division F of the International Astronomical Union by the
              Minor Planet Center, Smithsonian Astrophysical Observatory,
                              Cambridge, MA 02138, U.S.A.
    
                 Prepared using the Tamkin Foundation Computer Network
    
                                  MPC@CFA.HARVARD.EDU
                URL https://www.minorplanetcenter.net/    ISSN 1523-6714
    
                                     2020 PP                                 
    
    
    Observations:
         K20P00P  C2020 08 07.54333801 53 15.206+32 21 14.53         21.19GVEP038F52
         K20P00P  C2020 08 07.55496601 53 16.261+32 21 51.82               VEP038F52
         K20P00P  C2020 08 07.56664601 53 17.353+32 22 29.75         20.81GVEP038F52
         K20P00P* C2020 08 08.55411201 54 58.976+33 15 02.88         20.66iUEP038F51
         K20P00P  C2020 08 08.55855001 54 59.386+33 15 17.42         20.75GVEP038F52
         K20P00P  C2020 08 08.56124401 54 59.640+33 15 26.25         20.52iUEP038F51
         K20P00P  C2020 08 08.56637001 55 00.086+33 15 42.48         20.40GVEP038F52
         K20P00P  C2020 08 08.57420401 55 00.826+33 16 07.60         20.23GVEP038F52
         K20P00P  C2020 08 08.57562001 55 00.952+33 16 12.08         20.81iUEP038F51
         K20P00P  C2020 08 08.58202101 55 01.559+33 16 33.02         20.78GVEP038F52
         K20P00P  C2020 08 09.37787 01 56 24.03 +33 58 53.1          21.0 GVEP038I52
         K20P00P  C2020 08 09.38031 01 56 24.28 +33 59 01.3          21.0 GVEP038I52
         K20P00P  C2020 08 09.38274 01 56 24.51 +33 59 09.3          20.8 GVEP038I52
         K20P00P  C2020 08 10.38317 01 58 07.54 +34 52 40.2          20.2 GVEP038I52
         K20P00P  C2020 08 10.38690 01 58 07.92 +34 52 52.3          20.8 GVEP038I52
    
    Observer details:
    F51 Pan-STARRS 1, Haleakala.  Observers J. Bulger, T. Lowe, A. Schultz, M.
        Willman.  Measurers K. Chambers, S. Chastel, T. de Boer, L. Denneau, J.
        Fairlamb, H. Flewelling, M. Huber, C.-C. Lin, E. Magnier, Y. Ramanjooloo,
        R. Wainscoat, R. Weryk.  1.8-m Ritchey-Chretien + CCD.
    F52 Pan-STARRS 2, Haleakala.  Observers J. Bulger, K. Chambers, T. Dukes, T.
        Lowe, A. Schultz, M. Willman.  Measurers S. Chastel, M. Huber, Y.
        Ramanjooloo, R. Wainscoat, R. Weryk.  1.8-m Ritchey-Chretien + CCD.
    I52 Steward Observatory, Mt. Lemmon Station.  Observer H. Groeller.  Measurers
        E. J. Christensen, G. A. Farneth, D. C. Fuls, A. R. Gibbs, A. D. Grauer,
        H. Groeller, R. A. Kowalski, S. M. Larson, G. J. Leonard, T. A. Pruyne, D.
        Rankin, R. L. Seaman, F. C. Shelly, K. W. Wierzchos.  1.0-m reflector +
        CCD.
    
    Orbital elements:
    2020 PP                                             PHA, Earth MOID = 0.0345 AU
    Epoch 2020 May 31.0 TT = JDT 2459000.5                  Bell
    M 101.76520              (2000.0)            P               Q
    n   0.94845678     Peri.  216.76259     -0.94995944     -0.24381821
    a   1.0259456      Node   307.95979     +0.31123692     -0.79205109
    e   0.0897208      Incl.   14.33929     -0.02662046     -0.55964967
    P   1.04           H   20.7           G   0.15           U   8
    Residuals in seconds of arc
    200807 F52  0.1+  0.0     200808 F51  0.1+  0.3+    200809 I52  0.3-  0.3-
    200807 F52  0.2-  0.2-    200808 F52  0.2-  0.0     200809 I52  0.0   0.0
    200807 F52  0.1-  0.1+    200808 F52  0.0   0.2-    200809 I52  0.1-  0.0
    200808 F51  0.1+  0.0     200808 F51  0.1-  0.3-    200810 I52  0.1-  0.1+
    200808 F52  0.0   0.2+    200808 F52  0.2+  0.0     200810 I52  0.2+  0.0
    
    Ephemeris:
    2020 PP                  a,e,i = 1.03, 0.09, 14                  q = 0.9339
    Date    TT    R. A. (2000) Decl.     Delta      r    Elong.  Phase     V
    2020 07 11    01 05 59.4 +09 24 09   0.4189  1.1001    90.1    67.5    21.4
    ...
    2020 07 26    01 31 51.1 +21 30 15   0.3851  1.1106    93.9    65.8    21.2
    ...
    2020 08 03    01 45 28.5 +28 21 33   0.3691  1.1144    95.8    64.9    21.1
    ...
    2020 08 09    01 55 43.9 +33 38 43   0.3582  1.1163    97.1    64.3    21.0
    2020 08 10    01 57 26.8 +34 32 09   0.3565  1.1166    97.3    64.2    21.0
    2020 08 11    01 59 09.9 +35 25 43   0.3548  1.1168    97.5    64.1    21.0
    ...
    2020 08 17    02 09 31.0 +40 49 08   0.3455  1.1178    98.6    63.6    20.9
    ...
    2020 08 25    02 23 29.5 +48 01 23   0.3350  1.1178    99.8    63.0    20.8
    ...
    2020 09 09    02 51 22.7 +61 09 43   0.3209  1.1143   101.1    62.5    20.7
    
    M. P. C. Staff               (C) Copyright 2020 MPC           M.P.E.C. 2020-P38
    


    Read MPEC 2020-P37 Read MPEC 2020-P39


    MPEC number:

    Enter an MPEC number in one of the following forms:

    • 1997-B01 (the full form)
    • J97B01 (the packed version of the full form)
    • B01 (the abbreviated form)